Lexington Weather

Lexington, Massachusetts, USA

50°F
12/8/2022 2:11pm 
  • Lexington Conditions: Clear
  • Temperature: 49.5°F / 9.7°CColder 0.9°F than last hour.
  • Dew Point: 35.8°FIncreased 0.6°Fsince last hour.
  • Relative Humidity: 59%Increased 3.0% since last hour.
  • Wind: Wind from NW NW 6 mph, 10-min avg: 5 mph, gust: 11 mph
  • Barometer: 30.06 in Steady
  • Visibility: 10 miles
  • Rain Today: 0.00 in
  •   

Warning: Undefined variable $rc in /homepages/6/d276339138/htdocs/weather/20190804/ssi/nwsProduct.php on line 323

Warning: Undefined variable $rc in /homepages/6/d276339138/htdocs/weather/20190804/ssi/nwsProduct.php on line 325

Warning: Undefined variable $rc in /homepages/6/d276339138/htdocs/weather/20190804/ssi/nwsProduct.php on line 323

Warning: Undefined variable $rc in /homepages/6/d276339138/htdocs/weather/20190804/ssi/nwsProduct.php on line 325

Warning: Undefined variable $rc in /homepages/6/d276339138/htdocs/weather/20190804/ssi/nwsProduct.php on line 323

Warning: Undefined variable $rc in /homepages/6/d276339138/htdocs/weather/20190804/ssi/nwsProduct.php on line 325

Warning: Undefined variable $rc in /homepages/6/d276339138/htdocs/weather/20190804/ssi/nwsProduct.php on line 323

Warning: Undefined variable $rc in /homepages/6/d276339138/htdocs/weather/20190804/ssi/nwsProduct.php on line 325

Warning: Undefined variable $rc in /homepages/6/d276339138/htdocs/weather/20190804/ssi/nwsProduct.php on line 323

Warning: Undefined variable $rc in /homepages/6/d276339138/htdocs/weather/20190804/ssi/nwsProduct.php on line 325

Warning: Undefined variable $rc in /homepages/6/d276339138/htdocs/weather/20190804/ssi/nwsProduct.php on line 323

Warning: Undefined variable $rc in /homepages/6/d276339138/htdocs/weather/20190804/ssi/nwsProduct.php on line 325

Warning: Undefined variable $rc in /homepages/6/d276339138/htdocs/weather/20190804/ssi/nwsProduct.php on line 323

Warning: Undefined variable $rc in /homepages/6/d276339138/htdocs/weather/20190804/ssi/nwsProduct.php on line 325

Regional Weather Roundup
for Boston, MA

        
000
ASUS41 KBOX 060610
RWRBOX

REGIONAL WEATHER ROUNDUP
NATIONAL WEATHER SERVICE BOSTON/NORTON MA
100 AM EST TUE DEC 06 2022

NOTE:  "FAIR" INDICATES FEW OR NO CLOUDS BELOW 12,000 FEET WITH NO 
SIGNIFICANT WEATHER AND/OR OBSTRUCTIONS TO VISIBILITY.

MAZALL-060700-
EASTERN MASSACHUSETTS
  
CITY           SKY/WX    TMP DP  RH WIND       PRES   REMARKS
BOSTON         CLOUDY    41  38  89 SE9       30.39S                  
6HR MIN TEMP:  39; 6HR MAX TEMP:  43;                                

BEVERLY        CLEAR     36  35  96 S3        30.38S                  
LAWRENCE       CLEAR     40  34  79 CALM      30.39S                  
BEDFORD        CLEAR     31  28  89 CALM      30.36S                  
NORWOOD        CLEAR     31  28  89 CALM      30.38S                  
MARSHFIELD       N/A     39  37  93 S7        30.39S                  
PLYMOUTH       CLEAR     36  33  89 SE6       30.38S WCI  31          
TAUNTON          N/A    N/A N/A N/A MISG      30.38S                  
NEW BEDFORD    CLEAR     43  41  93 SE8       30.37S                  
$$

MAZALL-060700-
CAPE COD AND THE ISLANDS
  
CITY           SKY/WX    TMP DP  RH WIND       PRES   REMARKS
FALMOUTH       CLEAR     37  36  93 SE6       30.39S                  
HYANNIS        CLEAR     44  39  82 SE6       30.38S                  
CHATHAM        CLEAR     46  37  71 S6        30.41S                  
PROVINCETOWN   CLEAR     42  39  89 SE8       30.41S                  
NANTUCKET      CLEAR     45  41  86 SE8       30.40S                  
MARTHAS VNYRD  CLEAR     47  41  80 SE8       30.39R                  
$$
 
MAZALL-060700-
CENTRAL AND WESTERN MASSACHUSETTS
  
CITY           SKY/WX    TMP DP  RH WIND       PRES   REMARKS
WORCESTER      MOCLDY    40  33  76 SE8       30.32F                  
6HR MIN TEMP:  36; 6HR MAX TEMP:  40;                                

FITCHBURG      MOCLDY    32  27  81 CALM      30.36S                  
ORANGE         MOCLDY    30  26  85 CALM      30.35R                  
SPRINGFIELD    MOCLDY    29  29  98 NE3       30.33R                  
WESTFIELD      CLOUDY    30  26  85 CALM      30.35R                  
NORTH ADAMS    PTCLDY    37  30  75 SE8       30.31R WCI  31          
PITTSFIELD     MOCLDY    29  23  78 CALM      30.29R                  
$$
 
RIZALL-060700-
RHODE ISLAND
  
CITY           SKY/WX    TMP DP  RH WIND       PRES   REMARKS
PROVIDENCE     PTCLDY    35  32  88 CALM      30.37S                  
6HR MIN TEMP:  33; 6HR MAX TEMP:  40;                                

NEWPORT        CLEAR     47  43  86 SE9       30.36S                  
BLOCK ISLAND   CLEAR     49  44  83 SE12      30.35S                  
SMITHFIELD     PTCLDY    38  38 100 SE8       30.35S                  
WESTERLY       CLEAR     35  32  88 E6        30.33F WCI  30          
$$
 
CTZALL-060700-
CONNECTICUT
  
CITY           SKY/WX    TMP DP  RH WIND       PRES   REMARKS
BRADLEY INTL   MOCLDY    30  27  88 CALM      30.34R                  
6HR MIN TEMP:  28; 6HR MAX TEMP:  39;                                

HARTFORD       MOCLDY    34  31  88 CALM      30.35R                  
BRIDGEPORT     PTCLDY    36  33  89 N6        30.32S WCI  31          
DANBURY        PTCLDY    28  23  81 CALM      30.33R                  
GROTON         CLEAR     51  44  77 SE10      30.33F                  
NEW HAVEN      PTCLDY    35  32  88 N3        30.33R                  
CHESTER        FAIR      39  37  93 CALM      30.32R                  
MERIDEN        MOCLDY    33  29  85 CALM      30.34R                  
WILLIMANTIC    MOCLDY    29  29 100 CALM      30.34S                  
OXFORD         CLOUDY    35  32  88 E5        30.31S WCI  31          
$$

MEZ002-015-021-024-NHZ003-005-008-011-012-014-VTZ005-008-060700-
NORTHERN NEW ENGLAND
  
CITY           SKY/WX    TMP DP  RH WIND       PRES   REMARKS
PORTLAND ME    CLEAR     32  31  96 CALM      30.39S                  
6HR MIN TEMP:  30; 6HR MAX TEMP:  44;                                

BANGOR ME      MOCLDY    34  32  92 CALM      30.41R                  
CONCORD NH     CLOUDY    35  31  85 SE5       30.36R WCI  31          
MANCHESTER NH  CLOUDY    35  30  82 CALM      30.36R                  
NASHUA NH      CLOUDY    32  32 100 NW5       30.37S WCI  27          
PORTSMOUTH NH  CLOUDY    34  31  87 CALM      30.38R                  
JAFFREY NH     CLOUDY    32  27  81 CALM      30.33R                  
KEENE NH       CLOUDY    30  27  88 CALM        N/A                   
BURLINGTON VT  CLEAR     42  14  32 S15       30.25R                  
MT. WASHINGTON PTCLDY    19   1  45 SW37        N/A  WCI  -1          
$$

NYZ052-076-060700-
EASTERN NEW YORK
  
CITY           SKY/WX    TMP DP  RH WIND       PRES   REMARKS
ALBANY         MOCLDY    40  30  67 S10       30.28R                  
6HR MIN TEMP:  38; 6HR MAX TEMP:  41;                                

NEW YORK CITY  MOCLDY    42  36  79 N3        30.30F                  
6HR MIN TEMP:  41; 6HR MAX TEMP:  45;                                

$$
 
ANZALL-060700-
MARINE OBSERVATIONS
  
STATION/POSITION TIME  TEMP    WIND        PRES    VSBY  WAVE
                       AIR SEA DIR/SP/G                  HT/PER
                 (UTC) (F)     (DEG/KT/KT) (MB)    (MI)  (FT/S)
BOSTON BUOY      0550      51  150/ 14/ 16 1029.6R         3/ 4
BUZZARDS BAY     0500   49     130/ 15/ 17 1028.8R
NANTUCKET SOUND  0550   49 49  120/ 14/ 16 1028.9F         1/ 3
MASS BAY-STELLWA 0404   48 50  170/ 14/ 17 1028.1S  1 7/8  3/ 5
ISLE OF SHOALS   0500   47     170/ 11/ 13 1028.4F
S OF BLOCK IS    0526      54                N/A           4/11
$$

......................KEY.........................
  SKY/WX - SKY CONDITION/PRESENT WEATHER
  TMP    - TEMPERATURE IN FAHRENHEIT
  DWPT   - DEWPOINT IN FAHRENHEIT
  RH     - RELATIVE HUMIDITY IN PERCENT
  WIND   - DIRECTION AND SPEED IN MPH
  PRES   - MEAN SEA LEVEL PRESSURE IN INCHES OF HG
  WCI    - WIND CHILL INDEX
  VSB    - VISIBILITY IN MILES
  HX     - HEAT INDEX
  TC     - TEMPERATURE IN CELSIUS
  VRB    - VARIABLE WIND DIRECTION
  N/A    - NOT AVAILABLE
  
      

Other recent Regional Weather Roundups

Thu Dec 8, 1:10pm

Thu Dec 8, 12:10pm

Thu Dec 8, 11:10am

Thu Dec 8, 10:10am

Thu Dec 8, 9:10am

Thu Dec 8, 8:10am

Thu Dec 8, 7:10am

Thu Dec 8, 6:10am

Thu Dec 8, 5:10am

Thu Dec 8, 4:10am

Thu Dec 8, 3:10am

Thu Dec 8, 2:10am

Thu Dec 8, 1:10am

Thu Dec 8, 12:10am

Wed Dec 7, 11:10pm

Wed Dec 7, 10:10pm

Wed Dec 7, 9:10pm

Wed Dec 7, 8:10pm

Wed Dec 7, 7:10pm

Wed Dec 7, 6:10pm

Wed Dec 7, 5:10pm

Wed Dec 7, 4:10pm

Wed Dec 7, 3:10pm

Wed Dec 7, 2:10pm

Wed Dec 7, 1:10pm

Wed Dec 7, 12:10pm

Wed Dec 7, 11:10am

Wed Dec 7, 10:10am

Wed Dec 7, 9:10am

Wed Dec 7, 8:10am

Wed Dec 7, 7:10am

Wed Dec 7, 6:10am

Wed Dec 7, 5:10am

Wed Dec 7, 4:10am

Wed Dec 7, 3:10am

Wed Dec 7, 2:10am

Wed Dec 7, 1:10am

Wed Dec 7, 12:10am

Tue Dec 6, 11:10pm

Tue Dec 6, 10:10pm

Tue Dec 6, 9:10pm

Tue Dec 6, 8:10pm

Tue Dec 6, 7:10pm

Tue Dec 6, 6:10pm

Tue Dec 6, 5:10pm

Tue Dec 6, 4:10pm

Tue Dec 6, 3:10pm

Tue Dec 6, 2:10pm

Tue Dec 6, 1:10pm

Tue Dec 6, 12:10pm

Tue Dec 6, 11:10am

Tue Dec 6, 10:10am

Tue Dec 6, 9:10am

Tue Dec 6, 8:10am

Tue Dec 6, 7:10am

Tue Dec 6, 6:10am

Tue Dec 6, 5:10am

Tue Dec 6, 4:10am

Tue Dec 6, 3:10am

Tue Dec 6, 2:10am

Tue Dec 6, 12:10am

Mon Dec 5, 11:10pm

Mon Dec 5, 10:10pm

Mon Dec 5, 9:10pm

Mon Dec 5, 8:10pm

Mon Dec 5, 7:10pm

Mon Dec 5, 6:10pm

Mon Dec 5, 5:10pm

Mon Dec 5, 4:10pm

Mon Dec 5, 3:10pm

Mon Dec 5, 2:10pm

Mon Dec 5, 1:10pm

Mon Dec 5, 12:10pm

Mon Dec 5, 11:10am

Mon Dec 5, 10:10am

Mon Dec 5, 9:10am

Mon Dec 5, 8:10am

Mon Dec 5, 7:10am

Mon Dec 5, 6:10am

Mon Dec 5, 5:10am

Mon Dec 5, 4:10am

Mon Dec 5, 3:10am

Mon Dec 5, 2:10am

Mon Dec 5, 1:10am

Mon Dec 5, 12:10am

Sun Dec 4, 11:10pm

Sun Dec 4, 10:10pm

Sun Dec 4, 9:10pm

Sun Dec 4, 8:10pm

Sun Dec 4, 7:10pm

Sun Dec 4, 6:10pm

Sun Dec 4, 5:10pm

Sun Dec 4, 4:10pm

Sun Dec 4, 3:10pm

Sun Dec 4, 2:10pm

Sun Dec 4, 1:10pm

Sun Dec 4, 12:10pm

Sun Dec 4, 11:10am

Sun Dec 4, 10:10am

Sun Dec 4, 9:10am

Sun Dec 4, 8:10am

Sun Dec 4, 7:10am

Sun Dec 4, 6:10am

Sun Dec 4, 5:10am

Sun Dec 4, 4:10am

Sun Dec 4, 3:10am

Sun Dec 4, 2:10am

Sun Dec 4, 1:10am

Sun Dec 4, 12:10am

Sat Dec 3, 11:10pm

Sat Dec 3, 10:10pm

Sat Dec 3, 9:10pm

Sat Dec 3, 8:10pm

Sat Dec 3, 7:10pm

Sat Dec 3, 6:10pm

Sat Dec 3, 5:10pm

Sat Dec 3, 4:10pm

Sat Dec 3, 3:10pm

Sat Dec 3, 2:10pm

Sat Dec 3, 1:10pm

Sat Dec 3, 12:10pm

Sat Dec 3, 11:10am

Sat Dec 3, 10:10am

Sat Dec 3, 9:10am

Sat Dec 3, 8:10am

Sat Dec 3, 7:10am

Sat Dec 3, 6:10am

Sat Dec 3, 5:10am

Sat Dec 3, 4:10am

Sat Dec 3, 3:10am

Sat Dec 3, 2:10am

Sat Dec 3, 1:10am

Sat Dec 3, 12:10am

Fri Dec 2, 11:10pm

Fri Dec 2, 10:10pm

Fri Dec 2, 9:10pm

Fri Dec 2, 8:10pm

Fri Dec 2, 7:10pm

Fri Dec 2, 6:10pm

Fri Dec 2, 5:10pm

Fri Dec 2, 4:10pm

Fri Dec 2, 3:10pm

Fri Dec 2, 2:10pm

Fri Dec 2, 1:10pm

Fri Dec 2, 12:10pm

Fri Dec 2, 11:10am

Fri Dec 2, 10:10am

Fri Dec 2, 9:10am

Fri Dec 2, 8:10am

Fri Dec 2, 7:10am

Fri Dec 2, 6:10am

Fri Dec 2, 5:10am

Fri Dec 2, 4:10am

Fri Dec 2, 3:10am

Fri Dec 2, 2:10am

Fri Dec 2, 1:10am

Fri Dec 2, 12:10am

Thu Dec 1, 11:10pm

Thu Dec 1, 10:10pm

Thu Dec 1, 9:10pm

Thu Dec 1, 8:10pm

Thu Dec 1, 7:10pm

Thu Dec 1, 6:10pm

Thu Dec 1, 5:10pm

Thu Dec 1, 4:10pm

Thu Dec 1, 3:10pm

Thu Dec 1, 2:10pm

Meta data:

ID: dd4ea2d4-7ce4-4d61-a542-b6263dcc0511
Link: https://api.weather.gov/products/dd4ea2d4-7ce4-4d61-a542-b6263dcc0511